CW7532 Weather Reports


Display with metric or nautical units.
time (UTC)temp
F
wind
direction
speed
MPH
gust
MPH
rain 1hr
in
rain 24hr
in
rain mn
in
humidity
%
barometer
mb
20260504174609 77 60 2.0 6.0 0.00 0.00 0.00 39 1017.2
20260504173103 76 262 2.0 6.0 0.00 0.00 0.00 41 1017.4
20260504171554 77 227 2.0 5.0 0.00 0.00 0.00 40 1017.7
20260504081524 44 247 0.0 0.0 0.00 0.00 0.00 92 1018.8
20260504044559 48 247 0.0 0.0 0.00 0.00 0.00 87 1019.9
20260504043055 49 246 0.0 0.0 0.00 0.00 0.00 85 1020.0
20260504041551 49 247 0.0 0.0 0.00 0.00 0.00 84 1020.1
20260504034558 50 247 0.0 0.0 0.00 0.00 0.00 80 1020.3
20260504033124 50 247 0.0 0.0 0.00 0.00 0.00 80 1020.5
20260504031549 51 246 0.0 0.0 0.00 0.00 0.00 78 1020.5
20260504030049 52 247 0.0 0.0 0.00 0.00 0.00 76 1020.4
20260504024547 52 246 0.0 0.0 0.00 0.00 0.00 75 1020.2
20260504023059 53 247 0.0 0.0 0.00 0.00 0.00 73 1020.0
20260504021551 54 247 0.0 0.0 0.00 0.00 0.00 72 1019.9
20260504020054 55 247 0.0 0.0 0.00 0.00 0.00 70 1019.7
20260504014550 56 246 0.0 0.0 0.00 0.00 0.00 69 1019.6
20260504013051 57 247 0.0 0.0 0.00 0.00 0.00 68 1019.5
20260504011546 58 247 0.0 0.0 0.00 0.00 0.00 65 1019.4
20260504010053 60 247 0.0 0.0 0.00 0.00 0.00 60 1019.2
20260504004559 61 247 0.0 0.0 0.00 0.00 0.00 55 1019.1
20260504003044 63 247 0.0 0.0 0.00 0.00 0.00 52 1019.0
20260504001544 65 247 0.0 0.0 0.00 0.00 0.00 47 1019.0
20260504000044 67 247 0.0 0.0 0.00 0.00 0.00 41 1019.0
20260503234546 67 246 0.0 3.0 0.00 0.00 0.00 38 1019.0
20260503233042 69 355 0.0 4.0 0.00 0.00 0.00 37 1018.8
20260503231542 70 360 0.0 4.0 0.00 0.00 0.00 35 1018.8
20260503230040 71 349 1.0 8.0 0.00 0.00 0.00 34 1019.0
20260503224538 71 269 0.0 5.0 0.00 0.00 0.00 34 1019.0
20260503223037 72 323 4.0 7.0 0.00 0.00 0.00 32 1019.2
20260503221541 72 40 2.0 5.0 0.00 0.00 0.00 32 1019.2
20260503220034 72 360 4.0 9.0 0.00 0.00 0.00 31 1019.3
20260503214534 72 150 3.0 7.0 0.00 0.00 0.00 32 1019.4
20260503213041 72 333 4.0 8.0 0.00 0.00 0.00 34 1019.6
20260503211530 71 303 2.0 7.0 0.00 0.00 0.00 33 1019.7
20260503210029 72 355 4.0 9.0 0.00 0.00 0.00 34 1019.9
20260503204542 72 31 3.0 9.0 0.00 0.00 0.00 33 1020.0
20260503203025 72 360 4.0 10.0 0.00 0.00 0.00 32 1020.4
20260503201522 72 321 4.0 7.0 0.00 0.00 0.00 32 1020.6
20260503200022 70 44 6.0 14.0 0.00 0.00 0.00 34 1020.8
20260503194523 70 9 4.0 9.0 0.00 0.00 0.00 34 1021.3
20260503193027 72 40 3.0 9.0 0.00 0.00 0.00 32 1021.5
20260503191516 70 329 4.0 11.0 0.00 0.00 0.00 37 1021.8
20260503190013 69 254 1.0 8.0 0.00 0.00 0.00 37 1021.9
20260503184526 69 262 2.0 11.0 0.00 0.00 0.00 33 1022.3
20260503183008 69 232 3.0 8.0 0.00 0.00 0.00 38 1022.5
20260503181506 68 360 2.0 9.0 0.00 0.00 0.00 40 1022.7
20260503180017 67 207 3.0 10.0 0.00 0.00 0.00 36 1022.8